EW6223 Weather Reports


Display with metric or nautical units.
time (UTC)temp
F
wind
direction
speed
MPH
gust
MPH
rain 1hr
in
rain 24hr
in
rain mn
in
humidity
%
barometer
mb
20260508200024 0 0.0 0.0 0.00 0.00 0.00 1002.9
20260508194520 0 0.0 0.0 0.00 0.00 0.00 998.2
20260508193014 0 0.0 0.0 0.00 0.00 0.00 1002.3
20260508191508 0 0.0 0.0 0.00 0.00 0.00 1004.5
20260508190004 0 0.0 0.0 0.00 0.00 0.00 1003.6
20260508184606 0 0.0 0.0 0.00 0.00 0.00 1003.9
20260508183058 0 0.0 0.0 0.00 0.00 0.00 1003.9
20260508181554 0 0.0 0.0 0.00 0.00 0.00 1004.0
20260508180015 0 0.0 0.0 0.00 0.00 0.00 1004.6
20260508174513 0 0.0 0.0 0.00 0.00 0.00 1003.7
20260508173004 0 0.0 0.0 0.00 0.00 0.00 1002.5
20260508171600 0 0.0 0.0 0.00 0.00 0.00 999.8
20260508170100 0 0.0 0.0 0.00 0.00 0.00 1005.0
20260508164552 0 0.0 0.0 0.00 0.00 0.00 1004.1
20260508163018 0 0.0 0.0 0.00 0.00 0.00 1003.9
20260508161525 0 0.0 0.0 0.00 0.00 0.00 1003.0
20260508160008 0 0.0 0.0 0.00 0.00 0.00 999.5
20260508154503 0 0.0 0.0 0.00 0.00 0.00 1003.3
20260508153108 0 0.0 0.0 0.00 0.00 0.00 1005.0
20260508151556 0 0.0 0.0 0.00 0.00 0.00 1005.2
20260508150048 0 0.0 0.0 0.00 0.00 0.00 1005.4
20260508144544 0 0.0 0.0 0.00 0.00 0.00 1005.3
20260508143057 0 0.0 0.0 0.00 0.00 0.00 1005.2
20260508141538 0 0.0 0.0 0.00 0.00 0.00 1005.1
20260508140028 0 0.0 0.0 0.00 0.00 0.00 1005.1
20260508134532 0 0.0 0.0 0.00 0.00 0.00 1005.0
20260508133020 0 0.0 0.0 0.00 0.00 0.00 1004.9
20260508131515 0 0.0 0.0 0.00 0.00 0.00 1004.7
20260508130011 0 0.0 0.0 0.00 0.00 0.00 1004.6
20260508124507 72 46 0.0 0.0 0.00 0.00 0.00 78 1004.5
20260508123009 72 46 0.0 1.0 0.00 0.00 0.00 79 1004.5
20260508121505 72 46 0.0 0.0 0.00 0.00 0.00 79 1004.4
20260508120003 72 46 0.0 0.0 0.00 0.00 0.00 79 1004.3
20260508114502 72 46 0.0 2.0 0.00 0.00 0.00 78 1004.1
20260508113000 72 45 0.0 3.0 0.00 0.00 0.00 79 1004.1
20260508111604 72 46 0.0 2.0 0.00 0.00 0.00 78 1004.0
20260508110106 72 45 0.0 0.0 0.00 0.00 0.00 78 1004.0
20260508104559 73 45 0.0 0.0 0.00 0.00 0.00 77 1004.0
20260508103059 73 46 0.0 0.0 0.00 0.00 0.00 77 1004.0
20260508101602 73 45 0.0 1.0 0.00 0.00 0.00 77 1004.1
20260508100123 73 46 0.0 1.0 0.00 0.00 0.00 77 1004.1
20260508094552 73 46 0.0 2.0 0.00 0.00 0.00 76 1004.2
20260508093050 73 45 0.0 0.0 0.00 0.00 0.00 76 1004.3
20260508091606 73 45 0.0 0.0 0.00 0.00 0.00 75 1004.3
20260508090050 74 46 0.0 0.0 0.00 0.00 0.00 75 1003.9
20260508084517 74 46 0.0 0.0 0.00 0.00 0.00 75 1004.4
20260508083016 74 45 0.0 0.0 0.00 0.00 0.00 75 1002.9
20260508081515 74 45 0.0 0.0 0.00 0.00 0.00 75 1004.2
20260508080013 74 45 0.0 0.0 0.00 0.00 0.00 74 1003.3
20260508074512 75 46 0.0 1.0 0.00 0.00 0.00 73 1004.1
20260508073011 74 46 0.0 0.0 0.00 0.00 0.00 72 1002.9
20260508071509 74 46 0.0 0.0 0.00 0.00 0.00 70 1003.1
20260508070008 74 45 0.0 0.0 0.00 0.00 0.00 69 1004.3
20260508064510 74 45 0.0 0.0 0.00 0.00 0.00 69 1001.5
20260508063007 74 46 0.0 1.0 0.00 0.00 0.00 69 1002.9
20260508061502 75 45 0.0 0.0 0.00 0.00 0.00 71 1004.1
20260508060130 75 46 0.0 0.0 0.00 0.00 0.00 71 1004.3
20260508054640 76 45 0.0 2.0 0.00 0.00 0.00 71 996.5
20260508053058 76 46 0.0 2.0 0.00 0.00 0.00 70 1002.1
20260508051553 76 45 0.0 4.0 0.00 0.00 0.00 69 995.2
20260508050053 76 46 0.0 3.0 0.00 0.00 0.00 68 987.1
20260508044551 76 46 2.0 5.0 0.00 0.00 0.00 66 991.4
20260508043057 76 50 1.0 5.0 0.00 0.00 0.00 64 987.3
20260508041548 76 54 2.0 5.0 0.00 0.00 0.00 61 989.5
20260508040045 76 57 2.0 5.0 0.00 0.00 0.00 58 995.1
20260508034549 76 52 2.0 5.0 0.00 0.00 0.00 56 1000.1
20260508033042 77 48 3.0 6.0 0.00 0.00 0.00 56 999.6
20260508031541 77 46 3.0 5.0 0.00 0.00 0.00 54 992.9
20260508030043 77 31 3.0 6.0 0.00 0.00 0.00 52 987.5
20260508024544 78 31 2.0 4.0 0.00 0.00 0.00 50 977.1
20260508023039 78 37 2.0 5.0 0.00 0.00 0.00 50 985.7
20260508021537 79 41 1.0 4.0 0.00 0.00 0.00 47 986.0
20260508020036 80 48 2.0 4.0 0.00 0.00 0.00 46 988.3
20260508014538 81 55 1.0 3.0 0.00 0.00 0.00 44 988.3
20260508013035 83 113 0.0 3.0 0.00 0.00 0.00 39 994.9
20260508011534 86 16 1.0 5.0 0.00 0.00 0.00 32 997.3
20260508010045 85 250 2.0 7.0 0.00 0.00 0.00 29 994.7
20260508004532 85 290 3.0 7.0 0.00 0.00 0.00 30 995.4
20260508003032 84 261 3.0 7.0 0.00 0.00 0.00 34 996.0
20260508001505 84 264 2.0 5.0 0.00 0.00 0.00 40 994.5
20260508000001 82 239 1.0 5.0 0.00 0.00 0.00 48 989.6
20260507234603 82 233 2.0 5.0 0.00 0.00 0.00 46 989.6
20260507233058 81 213 3.0 5.0 0.00 0.00 0.00 48 990.0
20260507231557 83 217 3.0 6.0 0.00 0.00 0.00 42 989.3
20260507230056 84 200 3.0 6.0 0.00 0.00 0.00 37 988.7
20260507224554 84 228 3.0 5.0 0.00 0.00 0.00 34 992.7
20260507223055 86 223 3.0 6.0 0.00 0.00 0.00 29 986.0
20260507221552 85 217 3.0 7.0 0.00 0.00 0.00 28 993.0
20260507220050 84 208 3.0 6.0 0.00 0.00 0.00 42 999.6
20260507214550 84 228 3.0 6.0 0.00 0.00 0.00 43 997.6
20260507213048 84 250 3.0 9.0 0.00 0.00 0.00 44 990.2
20260507211552 84 199 2.0 6.0 0.00 0.00 0.00 46 990.2
20260507210046 85 204 3.0 7.0 0.00 0.00 0.00 45 998.2
20260507204544 85 213 2.0 6.0 0.00 0.00 0.00 48 998.2
20260507203043 85 208 3.0 7.0 0.00 0.00 0.00 51 1002.9
20260507201543 86 177 3.0 6.0 0.00 0.00 0.00 51 1004.4